STARLINK-31380, 58979

Orbit data source: Space-Track

STARLINK-31380, 58979 is a payload satellite owned by SpaceX/Seattle (US) in LEO that was launched on Thu, 15 Feb 2024 UTC via an FALCON 9 launch vehicle from the Air Force Western Test Range (AFWTR). Payload-class satellites include a variety of spacecraft equipped with specific instruments for various scientific and technological missions. These include communications satellites like Starlink; space stations such as the ISS; scientific satellites like the Hubble; Earth observation satellites from companies like Planet Labs, Umbra, and HawkEye 360; GPS; miniature CubeSats for education and research; and military/defense satellites.

Loading next visibility...
Identifier
58979, 2024-031Q
Orbit
LEO
Country
Flag of USUS
Related business
Manufacturer
SpaceX/Seattle
Mission
Operational Commercial Communications
Bus & Motor
STARLINK V2M, Unknown motor
Mass
730 kg wet, ~700 kg dry
Launch date (UTC)
2024-02-15 (2 years ago)
Launch vehicle
FALCON 9
Launch site
Air Force Western Test Range (AFWTR)
Object type
Payload
Rocket body
Debris
Shape & HBR
Box + 2 Pan, 17.7 m
Radar Cross Section
33.884 m², Large (>1 m²)

Expand to show TLE details & history
Last TLE update: 2 days ago

TLE from 2 days ago
0 STARLINK-31380
1 58979U 24031Q   26171.31464086  .00000435  00000-0  26820-4 0  9991
2 58979  53.1594 180.1442 0001234  87.7971 272.3171 15.30196688132226
Epoch: 2026-06-20T07:33Z
TLE epoch observation values (Epoch: 2026-06-20T07:33:04.970Z)
Latitude
-0.00002°
Longitude
158.34244°
Altitude
476.091 km
Speed
7.629 km/s
True Right ascension
12h 00m 34s
True Declination
0° 00' 00"
Sunlit
Object was in daylight at epoch
Visualization orbit readout
Latitude
Unknown
Longitude
Unknown
Altitude
Unknown
Speed
Unknown
Apparent Right ascension
Unknown
Apparent Declination
Unknown
Sunlit
N/A
Visualization observer readout
Local Sidereal Time
21:30:10
Azimuth
Unknown
Elevation
Unknown
Doppler factor
Unknown
Orbital elements
Apogee altitude
476.327 km
Perigee altitude
474.636 km
Semi-major axis
6,853.618 km
Eccentricity
0.00012
Inclination
53.1594°
RAAN
180.1442°
Arg. of periapsis
87.7971°
True anomaly
272.30297°
Mean anomaly
272.3171°
Eccentric anomaly
272.31004°
Mean motion
3.82528 °/min
Orbital period
94.11 mins
BSTAR
0.00002682
Loading maneuver chart data...
Computing Atmospheric mass density...
Loading historical data...
Loading historical data...
Loading historical data...
Loading historical data...
Loading historical data...
Loading historical data...
Loading historical data...

Documentation

Showing up to 5 results
|